Weather History for Grand Rapids, MN

Change the Weather History Date:

Wednesday, May 13, 2009

  Actual Average Record
Temperature  
Mean Temperature 62 °F -  
Max Temperature 69 °F 66 °F 89 °F (1977)
Min Temperature 55 °F 38 °F 18 °F (1953)
Degree Days  
Heating Degree Days 3    
Growing Degree Days 12 (Base 50)    
Moisture  
Dew Point 45 °F    
Average Humidity 59    
Maximum Humidity 88    
Minimum Humidity 28    
Precipitation  
Precipitation 0.03 in - - ()
Sea Level Pressure  
Sea Level Pressure 29.46 in    
Wind  
Wind Speed 18 mph (SSW)    
Max Wind Speed 25 mph    
Max Gust Speed 39 mph    
Visibility 9 miles    
Events      
Averages and records for this station are not official NWS values.
T = Trace of Precipitation, MM = Missing Value Source: NWS Daily Summary

Daily Weather History Graph

Daily Weather History Graph

Search for Another Location

Airport:

Trip Planner

Search our weather history database for the weather conditions in past years. The results will help you decide how hot, cold, wet, or windy it might be!

Date:

Astronomy

May. 13, 2009 Rise Set
Actual Time 5:40 AM CDT 8:41 PM CDT
Civil Twilight 5:04 AM CDT 9:17 PM CDT
Nautical Twilight 4:17 AM CDT 10:04 PM CDT
Astronomical Twilight 3:21 AM CDT 11:00 PM CDT
Moon 12:28 AM CDT (5/13) 8:42 AM CDT (5/13)
Length of Visible Light 16h 13m
Length of Day
15h 01m
Waning Gibbous, 82% of the Moon is Illuminated
May 13
Waning Gibbous
May 17
Last Quarter
May 24
New
May 30
First Quarter
Jun 7
Full

Hourly Weather History & Observations

Time (CDT) Temp. Windchill Dew Point Humidity Pressure Visibility Wind Dir Wind Speed Gust Speed Precip Events Conditions
12:15 AM 60.8 °F - 48.2 °F 63% 29.58 in 10.0 mi South 21.9 mph 39.1 mph N/A   Overcast
12:35 AM 59.0 °F - 48.2 °F 67% 29.58 in 10.0 mi South 25.3 mph 34.5 mph N/A   Overcast
12:55 AM 55.4 °F - 48.2 °F 77% 29.58 in 9.0 mi South 18.4 mph 26.5 mph N/A   Overcast
1:15 AM 55.4 °F - 48.2 °F 77% 29.56 in 5.0 mi SSE 19.6 mph 25.3 mph N/A   Overcast
1:35 AM 55.4 °F - 50.0 °F 82% 29.54 in 7.0 mi South 21.9 mph 27.6 mph N/A   Overcast
1:55 AM 55.4 °F - 50.0 °F 82% 29.53 in 10.0 mi SSE 19.6 mph 28.8 mph N/A   Overcast
2:15 AM 55.4 °F - 50.0 °F 82% 29.51 in 10.0 mi SSE 19.6 mph 32.2 mph N/A   Overcast
2:35 AM 55.4 °F - 50.0 °F 82% 29.52 in 10.0 mi South 24.2 mph 34.5 mph N/A   Overcast
2:55 AM 55.4 °F - 50.0 °F 82% 29.51 in 5.0 mi South 21.9 mph 29.9 mph 0.01 in   Overcast
3:15 AM 55.4 °F - 50.0 °F 82% 29.50 in 10.0 mi South 18.4 mph 26.5 mph N/A   Overcast
3:35 AM 55.4 °F - 50.0 °F 82% 29.49 in 9.0 mi South 17.3 mph 27.6 mph 0.01 in   Overcast
3:55 AM 55.4 °F - 50.0 °F 82% 29.48 in 10.0 mi South 19.6 mph 29.9 mph 0.01 in   Overcast
4:15 AM 55.4 °F - 50.0 °F 82% 29.46 in 10.0 mi SSE 20.7 mph 28.8 mph N/A   Overcast
4:35 AM 55.4 °F - 50.0 °F 82% 29.44 in 10.0 mi SSE 17.3 mph 26.5 mph N/A   Overcast
4:55 AM 55.4 °F - 50.0 °F 82% 29.41 in 10.0 mi SSE 21.9 mph 29.9 mph N/A   Overcast
5:15 AM 55.4 °F - 50.0 °F 82% 29.41 in 10.0 mi SSE 19.6 mph 32.2 mph N/A   Overcast
5:35 AM 55.4 °F - 48.2 °F 77% 29.43 in 10.0 mi South 19.6 mph 34.5 mph N/A   Overcast
5:55 AM 55.4 °F - 48.2 °F 77% 29.43 in 9.0 mi South 17.3 mph 26.5 mph N/A   Overcast
6:15 AM 55.4 °F - 48.2 °F 77% 29.43 in 3.0 mi South 16.1 mph 24.2 mph 0.01 in   Overcast
6:35 AM 55.4 °F - 48.2 °F 77% 29.43 in 4.0 mi South 19.6 mph 28.8 mph 0.01 in   Overcast
6:55 AM 55.4 °F - 50.0 °F 82% 29.43 in 5.0 mi South 19.6 mph 29.9 mph 0.01 in   Overcast
7:15 AM 55.4 °F - 50.0 °F 82% 29.43 in 8.0 mi South 20.7 mph 27.6 mph N/A   Overcast
7:35 AM 55.4 °F - 50.0 °F 82% 29.43 in 10.0 mi South 19.6 mph 26.5 mph N/A   Overcast
7:55 AM 55.4 °F - 50.0 °F 82% 29.43 in 10.0 mi South 15.0 mph 19.6 mph N/A   Overcast
8:15 AM 55.4 °F - 51.8 °F 88% 29.43 in 10.0 mi South 16.1 mph 24.2 mph N/A   Overcast
8:35 AM 57.2 °F - 51.8 °F 82% 29.43 in 10.0 mi South 10.4 mph 20.7 mph N/A   Overcast
8:55 AM 57.2 °F - 53.6 °F 88% 29.43 in 10.0 mi South 10.4 mph - N/A   Overcast
9:15 AM 57.2 °F - 53.6 °F 88% 29.43 in 10.0 mi SW 11.5 mph 19.6 mph N/A   Overcast
9:35 AM 60.8 °F - 51.8 °F 72% 29.43 in 10.0 mi WSW 9.2 mph - N/A   Mostly Cloudy
9:55 AM 60.8 °F - 46.4 °F 59% 29.43 in 10.0 mi WSW 13.8 mph 21.9 mph N/A   Partly Cloudy
10:15 AM 62.6 °F - 46.4 °F 55% 29.43 in 10.0 mi SW 10.4 mph 16.1 mph N/A   Partly Cloudy
10:35 AM 62.6 °F - 46.4 °F 55% 29.44 in 10.0 mi SW 11.5 mph 19.6 mph N/A   Partly Cloudy
10:55 AM 62.6 °F - 46.4 °F 55% 29.44 in 10.0 mi SW 16.1 mph 24.2 mph N/A   Clear
11:15 AM 64.4 °F - 44.6 °F 49% 29.44 in 10.0 mi WSW 11.5 mph 23.0 mph N/A   Clear
11:35 AM 64.4 °F - 44.6 °F 49% 29.44 in 10.0 mi SSW 10.4 mph 26.5 mph N/A   Clear
11:55 AM 66.2 °F - 44.6 °F 46% 29.43 in 10.0 mi SSW 11.5 mph 21.9 mph N/A   Clear
12:15 PM 66.2 °F - 42.8 °F 43% 29.43 in 10.0 mi SW 12.7 mph 20.7 mph N/A   Clear
12:35 PM 66.2 °F - 42.8 °F 43% 29.42 in 10.0 mi SSW 17.3 mph 23.0 mph N/A   Clear
12:55 PM 66.2 °F - 39.2 °F 37% 29.43 in 10.0 mi SW 19.6 mph 31.1 mph N/A   Clear
1:15 PM 68.0 °F - 41.0 °F 37% 29.43 in 10.0 mi WSW 12.7 mph 24.2 mph N/A   Clear
1:35 PM 69.8 °F - 39.2 °F 33% 29.42 in 10.0 mi SW 18.4 mph 27.6 mph N/A   Partly Cloudy
1:55 PM 69.8 °F - 39.2 °F 33% 29.42 in 10.0 mi SW 17.3 mph 27.6 mph N/A   Scattered Clouds
2:15 PM 69.8 °F - 35.6 °F 28% 29.42 in 10.0 mi SW 17.3 mph 29.9 mph N/A   Scattered Clouds
2:35 PM 69.8 °F - 35.6 °F 28% 29.42 in 10.0 mi West 19.6 mph 27.6 mph N/A   Partly Cloudy
2:55 PM 69.8 °F - 37.4 °F 31% 29.42 in 10.0 mi West 16.1 mph 24.2 mph N/A   Clear
3:15 PM 69.8 °F - 37.4 °F 31% 29.43 in 10.0 mi WSW 15.0 mph 32.2 mph N/A   Partly Cloudy
3:35 PM 68.0 °F - 37.4 °F 33% 29.43 in 10.0 mi WSW 8.1 mph 21.9 mph N/A   Mostly Cloudy
3:55 PM 68.0 °F - 37.4 °F 33% 29.44 in 10.0 mi West 15.0 mph 23.0 mph N/A   Mostly Cloudy
4:15 PM 66.2 °F - 35.6 °F 32% 29.45 in 10.0 mi West 13.8 mph 25.3 mph N/A   Mostly Cloudy
4:35 PM 66.2 °F - 37.4 °F 35% 29.45 in 10.0 mi West 16.1 mph 26.5 mph N/A   Mostly Cloudy
4:55 PM 68.0 °F - 35.6 °F 30% 29.45 in 10.0 mi West 12.7 mph 26.5 mph N/A   Mostly Cloudy
5:15 PM 66.2 °F - 35.6 °F 32% 29.46 in 10.0 mi West 16.1 mph 24.2 mph N/A   Scattered Clouds
5:35 PM 66.2 °F - 35.6 °F 32% 29.46 in 10.0 mi West 17.3 mph 25.3 mph N/A   Overcast
5:55 PM 66.2 °F - 35.6 °F 32% 29.46 in 10.0 mi West 16.1 mph 23.0 mph N/A   Mostly Cloudy
6:15 PM 66.2 °F - 33.8 °F 30% 29.46 in 10.0 mi WSW 13.8 mph 29.9 mph N/A   Partly Cloudy
6:35 PM 64.4 °F - 33.8 °F 32% 29.46 in 10.0 mi West 15.0 mph 27.6 mph N/A   Mostly Cloudy
6:55 PM 64.4 °F - 33.8 °F 32% 29.46 in 10.0 mi SW 12.7 mph 20.7 mph N/A   Overcast
7:15 PM 62.6 °F - 32.0 °F 32% 29.46 in 10.0 mi WSW 11.5 mph 18.4 mph N/A   Mostly Cloudy
7:35 PM 59.0 °F - 30.2 °F 34% 29.48 in 10.0 mi West 12.7 mph 28.8 mph N/A   Mostly Cloudy
7:55 PM 53.6 °F - 39.2 °F 58% 29.50 in 10.0 mi WNW 12.7 mph 23.0 mph N/A   Overcast
8:15 PM 53.6 °F - 39.2 °F 58% 29.48 in 10.0 mi WSW 6.9 mph - N/A   Overcast
8:35 PM 53.6 °F - 35.6 °F 51% 29.48 in 10.0 mi West 11.5 mph 23.0 mph N/A   Mostly Cloudy
8:55 PM 53.6 °F - 37.4 °F 54% 29.49 in 10.0 mi West 16.1 mph 24.2 mph N/A   Overcast
9:15 PM 51.8 °F - 37.4 °F 58% 29.52 in 10.0 mi West 16.1 mph 24.2 mph N/A   Overcast
9:35 PM 48.2 °F - 39.2 °F 71% 29.53 in 10.0 mi WSW 12.7 mph 18.4 mph 0.01 in   Overcast
9:55 PM 48.2 °F - 39.2 °F 71% 29.52 in 10.0 mi WSW 4.6 mph - 0.04 in   Overcast
10:15 PM 46.4 °F 40.4 °F 39.2 °F 76% 29.53 in 7.0 mi WSW 13.8 mph 21.9 mph 0.03 in   Overcast
10:35 PM 46.4 °F 41.9 °F 39.2 °F 76% 29.53 in 10.0 mi WSW 9.2 mph 18.4 mph 0.03 in   Overcast
10:55 PM 46.4 °F 41.5 °F 39.2 °F 76% 29.53 in 10.0 mi WSW 10.4 mph - 0.03 in   Overcast
11:15 PM 46.4 °F 40.7 °F 41.0 °F 81% 29.53 in 10.0 mi West 12.7 mph 23.0 mph N/A   Mostly Cloudy
11:35 PM 46.4 °F 40.4 °F 39.2 °F 76% 29.53 in 10.0 mi WNW 13.8 mph 19.6 mph N/A   Mostly Cloudy
11:55 PM 46.4 °F 40.4 °F 39.2 °F 76% 29.54 in 9.0 mi West 13.8 mph 23.0 mph 0.02 in   Overcast